| time (UTC) | temp F | wind direction | speed MPH | gust MPH | rain 1hr in | rain 24hr in | rain mn in | humidity % | barometer mb |
| 20260505052558 | 53 | 198 | 5.0 | 9.0 | 0.00 | 0.00 | 0.00 | 96 | 1013.5 |
| 20260505052058 | 53 | 198 | 5.0 | 9.0 | 0.00 | 0.00 | 0.00 | 96 | 1013.6 |
| 20260505051558 | 53 | 174 | 5.0 | 9.0 | 0.00 | 0.00 | 0.00 | 96 | 1013.7 |
| 20260505051058 | 53 | 197 | 4.0 | 7.0 | 0.00 | 0.00 | 0.00 | 96 | 1013.7 |
| 20260505050558 | 53 | 174 | 3.0 | 6.0 | 0.00 | 0.00 | 0.00 | 96 | 1013.7 |
| 20260505041604 | 53 | 180 | 5.0 | 9.0 | 0.00 | 0.00 | 0.00 | 96 | 1013.4 |
| 20260505041056 | 53 | 169 | 5.0 | 9.0 | 0.00 | 0.00 | 0.00 | 95 | 1013.3 |
| 20260505040558 | 53 | 188 | 5.0 | 13.0 | 0.00 | 0.00 | 0.00 | 95 | 1013.3 |
| 20260505040058 | 53 | 179 | 6.0 | 13.0 | 0.00 | 0.00 | 0.00 | 95 | 1013.2 |
| 20260505035556 | 53 | 190 | 9.0 | 12.0 | 0.00 | 0.00 | 0.00 | 95 | 1013.1 |
| 20260505035055 | 53 | 207 | 7.0 | 11.0 | 0.00 | 0.00 | 0.00 | 95 | 1013.1 |
| 20260505034556 | 53 | 193 | 8.0 | 10.0 | 0.00 | 0.00 | 0.00 | 95 | 1013.1 |
| 20260505034056 | 53 | 197 | 6.0 | 9.0 | 0.00 | 0.00 | 0.00 | 95 | 1012.9 |
| 20260505033555 | 53 | 208 | 3.0 | 8.0 | 0.00 | 0.00 | 0.00 | 95 | 1012.8 |
| 20260505033055 | 53 | 180 | 4.0 | 8.0 | 0.00 | 0.00 | 0.00 | 95 | 1012.8 |
| 20260505032554 | 53 | 169 | 3.0 | 7.0 | 0.00 | 0.00 | 0.00 | 95 | 1012.8 |
| 20260505032054 | 53 | 172 | 4.0 | 9.0 | 0.00 | 0.00 | 0.00 | 95 | 1012.7 |
| 20260505031555 | 53 | 188 | 5.0 | 10.0 | 0.00 | 0.00 | 0.00 | 95 | 1012.7 |
| 20260505031054 | 53 | 192 | 5.0 | 10.0 | 0.00 | 0.00 | 0.00 | 95 | 1012.7 |
| 20260505030554 | 53 | 182 | 5.0 | 10.0 | 0.00 | 0.00 | 0.00 | 95 | 1012.6 |
| 20260505030111 | 54 | 190 | 5.0 | 10.0 | 0.00 | 0.00 | 0.00 | 95 | 1012.5 |
| 20260505025554 | 54 | 190 | 7.0 | 10.0 | 0.00 | 0.00 | 0.00 | 94 | 1012.6 |
| 20260505025058 | 54 | 185 | 8.0 | 10.0 | 0.00 | 0.00 | 0.00 | 94 | 1012.6 |
| 20260505024559 | 54 | 171 | 6.0 | 9.0 | 0.00 | 0.00 | 0.00 | 94 | 1012.5 |
| 20260505024054 | 54 | 211 | 5.0 | 10.0 | 0.00 | 0.00 | 0.00 | 94 | 1012.5 |
| 20260505023553 | 54 | 204 | 6.0 | 10.0 | 0.00 | 0.00 | 0.00 | 94 | 1012.6 |
| 20260505023054 | 54 | 198 | 6.0 | 10.0 | 0.00 | 0.00 | 0.00 | 94 | 1012.6 |
| 20260505022553 | 54 | 180 | 4.0 | 10.0 | 0.00 | 0.00 | 0.00 | 94 | 1012.7 |
| 20260505022057 | 54 | 188 | 6.0 | 12.0 | 0.00 | 0.00 | 0.00 | 94 | 1012.8 |
| 20260505021553 | 54 | 202 | 9.0 | 12.0 | 0.00 | 0.00 | 0.00 | 94 | 1012.8 |
| 20260505021053 | 54 | 196 | 9.0 | 11.0 | 0.00 | 0.00 | 0.00 | 93 | 1012.8 |
| 20260505020553 | 54 | 198 | 4.0 | 12.0 | 0.00 | 0.00 | 0.00 | 94 | 1012.8 |
| 20260505020058 | 54 | 212 | 8.0 | 12.0 | 0.00 | 0.00 | 0.00 | 93 | 1012.8 |
| 20260505015553 | 54 | 213 | 8.0 | 11.0 | 0.00 | 0.00 | 0.00 | 93 | 1012.9 |
| 20260505015053 | 54 | 198 | 7.0 | 11.0 | 0.00 | 0.00 | 0.00 | 93 | 1012.8 |
| 20260505014607 | 54 | 163 | 7.0 | 12.0 | 0.00 | 0.00 | 0.00 | 93 | 1012.8 |
| 20260505014055 | 54 | 190 | 7.0 | 15.0 | 0.00 | 0.00 | 0.00 | 94 | 1012.8 |
| 20260505013551 | 54 | 175 | 9.0 | 15.0 | 0.00 | 0.00 | 0.00 | 93 | 1012.8 |
| 20260505013054 | 54 | 175 | 10.0 | 13.0 | 0.00 | 0.00 | 0.00 | 93 | 1012.9 |
| 20260505012551 | 54 | 184 | 7.0 | 12.0 | 0.00 | 0.00 | 0.00 | 94 | 1012.9 |
| 20260505012051 | 54 | 200 | 7.0 | 14.0 | 0.00 | 0.00 | 0.00 | 94 | 1012.9 |
| 20260505011556 | 54 | 192 | 8.0 | 13.0 | 0.00 | 0.00 | 0.00 | 94 | 1013.0 |
| 20260505011054 | 54 | 218 | 9.0 | 14.0 | 0.00 | 0.00 | 0.00 | 94 | 1013.1 |
| 20260505010550 | 54 | 200 | 10.0 | 14.0 | 0.00 | 0.00 | 0.00 | 94 | 1013.1 |
| 20260505010058 | 54 | 210 | 9.0 | 13.0 | 0.00 | 0.00 | 0.00 | 94 | 1013.1 |
| 20260505005554 | 54 | 192 | 8.0 | 14.0 | 0.00 | 0.00 | 0.00 | 94 | 1013.1 |
| 20260505005051 | 54 | 190 | 8.0 | 14.0 | 0.00 | 0.00 | 0.00 | 94 | 1013.1 |
| 20260505004552 | 55 | 201 | 7.0 | 13.0 | 0.00 | 0.00 | 0.00 | 95 | 1013.1 |
| 20260505004049 | 55 | 199 | 7.0 | 12.0 | 0.00 | 0.00 | 0.00 | 95 | 1013.1 |
| 20260505003550 | 54 | 200 | 8.0 | 12.0 | 0.00 | 0.00 | 0.00 | 94 | 1013.1 |
| 20260505003057 | 54 | 169 | 6.0 | 12.0 | 0.00 | 0.00 | 0.00 | 95 | 1013.1 |
| 20260505002549 | 54 | 196 | 7.0 | 12.0 | 0.00 | 0.00 | 0.00 | 95 | 1013.2 |
| 20260505002049 | 54 | 202 | 7.0 | 11.0 | 0.00 | 0.00 | 0.00 | 95 | 1013.2 |
| 20260505001549 | 54 | 202 | 5.0 | 11.0 | 0.00 | 0.00 | 0.00 | 95 | 1013.2 |
| 20260505001048 | 54 | 203 | 8.0 | 14.0 | 0.00 | 0.00 | 0.00 | 95 | 1013.2 |
| 20260505000548 | 54 | 205 | 5.0 | 14.0 | 0.00 | 0.00 | 0.00 | 95 | 1013.3 |
| 20260505000053 | 54 | 198 | 6.0 | 11.0 | 0.00 | 0.00 | 0.00 | 95 | 1013.5 |
| 20260504235549 | 54 | 198 | 5.0 | 12.0 | 0.00 | 0.00 | 0.00 | 95 | 1013.5 |
| 20260504235048 | 54 | 184 | 4.0 | 12.0 | 0.00 | 0.00 | 0.00 | 95 | 1013.5 |
| 20260504234548 | 54 | 199 | 6.0 | 12.0 | 0.00 | 0.00 | 0.00 | 95 | 1013.5 |
| 20260504234047 | 54 | 194 | 5.0 | 11.0 | 0.00 | 0.00 | 0.00 | 95 | 1013.5 |
| 20260504233548 | 54 | 215 | 6.0 | 11.0 | 0.00 | 0.00 | 0.00 | 95 | 1013.5 |
| 20260504233049 | 54 | 209 | 5.0 | 11.0 | 0.00 | 0.00 | 0.00 | 95 | 1013.5 |
| 20260504232546 | 54 | 200 | 4.0 | 12.0 | 0.00 | 0.00 | 0.00 | 95 | 1013.5 |
| 20260504232047 | 54 | 149 | 5.0 | 12.0 | 0.00 | 0.00 | 0.00 | 95 | 1013.5 |
| 20260504231546 | 54 | 198 | 6.0 | 11.0 | 0.00 | 0.00 | 0.00 | 95 | 1013.5 |
| 20260504231046 | 54 | 217 | 6.0 | 14.0 | 0.00 | 0.00 | 0.00 | 95 | 1013.5 |
| 20260504230547 | 54 | 192 | 5.0 | 13.0 | 0.00 | 0.00 | 0.00 | 95 | 1013.6 |
| 20260504230046 | 54 | 215 | 6.0 | 14.0 | 0.00 | 0.00 | 0.00 | 95 | 1013.6 |
| 20260504225547 | 54 | 188 | 6.0 | 17.0 | 0.00 | 0.00 | 0.00 | 95 | 1013.5 |
| 20260504225045 | 54 | 293 | 6.0 | 17.0 | 0.00 | 0.00 | 0.00 | 95 | 1013.5 |
| 20260504224545 | 54 | 192 | 9.0 | 17.0 | 0.00 | 0.00 | 0.00 | 96 | 1013.5 |
| 20260504224048 | 54 | 225 | 9.0 | 16.0 | 0.00 | 0.00 | 0.00 | 95 | 1013.6 |
| 20260504223545 | 54 | 215 | 9.0 | 15.0 | 0.00 | 0.00 | 0.00 | 96 | 1013.6 |
| 20260504223058 | 54 | 182 | 9.0 | 16.0 | 0.00 | 0.00 | 0.00 | 96 | 1013.6 |
| 20260504222544 | 54 | 197 | 8.0 | 16.0 | 0.00 | 0.00 | 0.00 | 96 | 1013.6 |
| 20260504222044 | 54 | 180 | 9.0 | 15.0 | 0.00 | 0.00 | 0.00 | 96 | 1013.6 |
| 20260504221544 | 54 | 207 | 7.0 | 12.0 | 0.00 | 0.00 | 0.00 | 96 | 1013.8 |
| 20260504221044 | 54 | 200 | 7.0 | 13.0 | 0.00 | 0.00 | 0.00 | 96 | 1013.7 |
| 20260504220544 | 54 | 207 | 9.0 | 13.0 | 0.00 | 0.00 | 0.00 | 96 | 1013.7 |
| 20260504220043 | 54 | 188 | 8.0 | 14.0 | 0.00 | 0.00 | 0.00 | 96 | 1013.8 |
| 20260504215547 | 54 | 207 | 8.0 | 14.0 | 0.00 | 0.00 | 0.00 | 96 | 1013.8 |
| 20260504215044 | 54 | 204 | 7.0 | 13.0 | 0.00 | 0.00 | 0.00 | 96 | 1013.8 |
| 20260504214542 | 54 | 194 | 8.0 | 12.0 | 0.00 | 0.00 | 0.00 | 96 | 1013.8 |
| 20260504214048 | 54 | 202 | 7.0 | 15.0 | 0.00 | 0.00 | 0.00 | 96 | 1013.9 |
| 20260504213542 | 54 | 199 | 9.0 | 15.0 | 0.00 | 0.00 | 0.00 | 96 | 1013.8 |
| 20260504213044 | 54 | 194 | 9.0 | 13.0 | 0.00 | 0.00 | 0.00 | 96 | 1013.8 |
| 20260504212545 | 54 | 201 | 9.0 | 12.0 | 0.00 | 0.00 | 0.00 | 96 | 1013.9 |
| 20260504212042 | 54 | 195 | 7.0 | 11.0 | 0.00 | 0.00 | 0.00 | 96 | 1013.8 |
| 20260504211611 | 54 | 197 | 7.0 | 11.0 | 0.00 | 0.00 | 0.00 | 96 | 1013.9 |
| 20260504211040 | 54 | 211 | 7.0 | 13.0 | 0.00 | 0.00 | 0.00 | 96 | 1013.9 |
| 20260504210539 | 54 | 202 | 6.0 | 13.0 | 0.00 | 0.00 | 0.00 | 96 | 1013.9 |
| 20260504210045 | 54 | 202 | 8.0 | 16.0 | 0.00 | 0.00 | 0.00 | 96 | 1014.0 |
| 20260504205539 | 54 | 185 | 9.0 | 16.0 | 0.00 | 0.00 | 0.00 | 96 | 1014.0 |
| 20260504205039 | 54 | 202 | 8.0 | 13.0 | 0.00 | 0.00 | 0.00 | 97 | 1014.0 |
| 20260504204539 | 54 | 192 | 9.0 | 13.0 | 0.00 | 0.00 | 0.00 | 96 | 1014.0 |
| 20260504204039 | 54 | 197 | 9.0 | 13.0 | 0.00 | 0.00 | 0.00 | 96 | 1014.0 |
| 20260504203538 | 54 | 187 | 9.0 | 15.0 | 0.00 | 0.00 | 0.00 | 97 | 1014.0 |
| 20260504203038 | 53 | 168 | 10.0 | 15.0 | 0.00 | 0.00 | 0.00 | 96 | 1014.2 |
| 20260504202538 | 53 | 198 | 8.0 | 13.0 | 0.00 | 0.00 | 0.00 | 97 | 1014.1 |
| 20260504202038 | 53 | 190 | 10.0 | 17.0 | 0.00 | 0.00 | 0.00 | 96 | 1014.1 |
| 20260504201538 | 53 | 193 | 10.0 | 12.0 | 0.00 | 0.00 | 0.00 | 97 | 1014.2 |
| 20260504201038 | 54 | 202 | 6.0 | 13.0 | 0.00 | 0.00 | 0.00 | 97 | 1014.2 |
| 20260504200537 | 53 | 201 | 7.0 | 13.0 | 0.00 | 0.00 | 0.00 | 97 | 1014.2 |
| 20260504200037 | 53 | 202 | 9.0 | 13.0 | 0.00 | 0.00 | 0.00 | 97 | 1014.2 |
| 20260504195536 | 53 | 196 | 8.0 | 13.0 | 0.00 | 0.00 | 0.00 | 97 | 1014.2 |
| 20260504195036 | 53 | 198 | 10.0 | 16.0 | 0.00 | 0.00 | 0.00 | 97 | 1014.2 |
| 20260504194542 | 53 | 182 | 8.0 | 16.0 | 0.00 | 0.00 | 0.00 | 97 | 1014.1 |
| 20260504194037 | 53 | 198 | 9.0 | 16.0 | 0.00 | 0.00 | 0.00 | 97 | 1014.1 |
| 20260504193537 | 53 | 196 | 10.0 | 15.0 | 0.00 | 0.00 | 0.00 | 97 | 1014.0 |
| 20260504193037 | 53 | 200 | 9.0 | 15.0 | 0.00 | 0.00 | 0.00 | 97 | 1014.0 |
| 20260504192537 | 53 | 195 | 9.0 | 15.0 | 0.00 | 0.00 | 0.00 | 97 | 1014.0 |
| 20260504192035 | 53 | 201 | 8.0 | 13.0 | 0.00 | 0.00 | 0.00 | 97 | 1014.0 |
| 20260504191537 | 53 | 202 | 8.0 | 16.0 | 0.00 | 0.00 | 0.00 | 97 | 1014.0 |
| 20260504191034 | 53 | 213 | 10.0 | 16.0 | 0.00 | 0.00 | 0.00 | 97 | 1013.9 |
| 20260504190534 | 53 | 207 | 9.0 | 14.0 | 0.00 | 0.00 | 0.00 | 97 | 1013.9 |
| 20260504190036 | 53 | 204 | 8.0 | 14.0 | 0.00 | 0.00 | 0.00 | 97 | 1013.9 |
| 20260504185533 | 53 | 173 | 7.0 | 14.0 | 0.00 | 0.00 | 0.00 | 97 | 1013.9 |
| 20260504185033 | 53 | 188 | 11.0 | 16.0 | 0.00 | 0.00 | 0.00 | 97 | 1013.9 |
| 20260504184544 | 53 | 197 | 9.0 | 16.0 | 0.00 | 0.00 | 0.00 | 97 | 1013.9 |
| 20260504184035 | 53 | 190 | 12.0 | 18.0 | 0.00 | 0.00 | 0.00 | 97 | 1014.0 |
| 20260504183535 | 53 | 188 | 10.0 | 18.0 | 0.00 | 0.00 | 0.00 | 97 | 1014.0 |
| 20260504183032 | 53 | 200 | 12.0 | 18.0 | 0.00 | 0.00 | 0.00 | 97 | 1013.9 |
| 20260504182530 | 53 | 183 | 14.0 | 19.0 | 0.00 | 0.00 | 0.00 | 97 | 1013.7 |
| 20260504182031 | 53 | 169 | 11.0 | 19.0 | 0.00 | 0.00 | 0.00 | 97 | 1013.7 |
| 20260504181535 | 53 | 198 | 10.0 | 17.0 | 0.00 | 0.00 | 0.00 | 97 | 1013.7 |
| 20260504181030 | 53 | 197 | 13.0 | 17.0 | 0.00 | 0.00 | 0.00 | 97 | 1013.6 |
| 20260504180530 | 53 | 187 | 13.0 | 17.0 | 0.00 | 0.00 | 0.00 | 97 | 1013.5 |
| 20260504180028 | 53 | 201 | 11.0 | 16.0 | 0.00 | 0.00 | 0.00 | 97 | 1013.5 |
| 20260504175528 | 53 | 200 | 9.0 | 14.0 | 0.00 | 0.00 | 0.00 | 97 | 1013.5 |
| 20260504175029 | 53 | 188 | 8.0 | 15.0 | 0.00 | 0.00 | 0.00 | 97 | 1013.5 |
| 20260504174528 | 53 | 207 | 11.0 | 16.0 | 0.00 | 0.00 | 0.00 | 97 | 1013.5 |
| 20260504174028 | 53 | 197 | 8.0 | 13.0 | 0.00 | 0.00 | 0.00 | 97 | 1013.4 |
| 20260504173528 | 53 | 191 | 10.0 | 13.0 | 0.00 | 0.00 | 0.00 | 97 | 1013.5 |
| 20260504173028 | 53 | 193 | 9.0 | 13.0 | 0.00 | 0.00 | 0.00 | 97 | 1013.5 |
| 20260504172528 | 53 | 176 | 7.0 | 12.0 | 0.00 | 0.00 | 0.00 | 97 | 1013.5 |
| 20260504172026 | 53 | 178 | 7.0 | 12.0 | 0.00 | 0.00 | 0.00 | 97 | 1013.5 |
| 20260504171526 | 53 | 192 | 7.0 | 11.0 | 0.00 | 0.00 | 0.00 | 97 | 1013.5 |
| 20260504171027 | 53 | 183 | 8.0 | 11.0 | 0.00 | 0.00 | 0.00 | 97 | 1013.4 |
| 20260504170524 | 52 | 191 | 7.0 | 16.0 | 0.00 | 0.00 | 0.00 | 97 | 1013.4 |
| 20260504151016 | 53 | 182 | 3.0 | 8.0 | 0.00 | 0.00 | 0.00 | 97 | 1013.0 |
| 20260504150516 | 53 | 204 | 2.0 | 7.0 | 0.00 | 0.00 | 0.00 | 97 | 1013.0 |
| 20260504141008 | 53 | 150 | 6.0 | 16.0 | 0.00 | 0.00 | 0.00 | 97 | 1012.3 |
| 20260504140508 | 53 | 142 | 8.0 | 16.0 | 0.00 | 0.00 | 0.00 | 97 | 1012.3 |
| 20260504130501 | 52 | 132 | 9.0 | 16.0 | 0.00 | 0.00 | 0.00 | 97 | 1012.0 |
| 20260504110554 | 52 | 161 | 4.0 | 12.0 | 0.00 | 0.00 | 0.00 | 98 | 1011.8 |
| 20260504100554 | 52 | 188 | 3.0 | 9.0 | 0.00 | 0.00 | 0.00 | 98 | 1011.7 |
| 20260504081540 | 51 | 188 | 8.0 | 12.0 | 0.00 | 0.00 | 0.00 | 98 | 1011.8 |
| 20260504081040 | 51 | 197 | 7.0 | 10.0 | 0.00 | 0.00 | 0.00 | 98 | 1011.6 |
| 20260504080538 | 51 | 188 | 7.0 | 11.0 | 0.00 | 0.00 | 0.00 | 98 | 1011.6 |